NOAA 16 DEB

Satellite information

Favourite Embed

Satellite Type and Status

DEBRISIN ORBIT

Key statistics

Satellite NOAA 16 DEB at a glance.

Uptime

9215

Days in orbit

Revolutions

≈ 14.6

Per day

Orbit

SSO

Sun Synchronous Orbit

Inclination

98.8

Latest

Satellite identification and parameters

Extended collection of information and parameters for NOAA 16 DEB.

Object identification

Identified? True

Debris? True

Object name: NOAA 16 DEB

International designator: 2000-055SQ

Object number (NORAD): 42396

Object ID (CCSDS): 42396

Country: UNITED STATES OF AMERICA (US)

Current information (Y/N): Y

RCS size: SMALL

Orbital parameters

Period: 98.941 minutes

Inclination: 98.7951 deg

SMA: 7086.16 km

Apoapsis: 727.798 km

Periapsis: 688.253 km

RAAN: 126.0374 deg

Eccentricy: 0.00279028

Argument of periapsis: 220.8305 deg

Mean anomaly: 139.0801 deg

Mean motion: 14.55413153 rev/day

Mean motion (dot): 0.00024104 rev/day2

B* drag term: 0.0055116931 1/REarth

Two-line elements (TLE)

Creation date: Dec. 13, 2025, 5:47 p.m.

Reference frame: TEME

Reference center: EARTH

Epoch: Dec. 13, 2025, 8:01 a.m. UTC

TLE line 0: 0 NOAA 16 DEB

TLE line 1: 1 42396U 00055SQ 25347.33443833 .00024104 00000-0 55117-2 0 9998

TLE line 2: 2 42396 98.7951 126.0374 0027903 220.8305 139.0801 14.55413153510234

Live tracking on map

Real-time ground track for satellite NOAA 16 DEB.

In-orbit conjunctions

A list of the most updated potential collisions computed for object NOAA 16 DEB.

Target Orbit TCA Probability of collision Miss distance Type
SL-8 R/B LEO 2025-09-01 20:26:29 0.0001666412 474.0 (m) ROCKET BODY
NOAA 17 DEB SSO 2024-09-26 19:22:31 0.0001671596 443.0 (m) DEBRIS

Associated space launch

The NOAA K, L and M POES satellites begin the fifth generation of improved environmental monitoring in support of NOAA missions. The instrument payload has significant improvements and additions/deletions. The instrument changes have effected the spacecraft subsystems and data formats.

NOAA 16 DEB was lifted into orbit during the mission ‘Titan II SLV | NOAA 16’, on board a Titan II SLV space rocket.

The launch took place on Sept. 21, 2000, 10:22 a.m. from Space Launch Complex 4W.

For more information about the launch, click the button.

Launch to space Titan II SLV | NOAA 16
Titan II SLV | NOAA 16

Agency: N/A

Status: Launch Successful

Launch date: Sept. 21, 2000, 10:22 a.m. UTC

Rocket: Titan II SLV

Launch pad: Space Launch Complex 4W

Location: Vandenberg SFB, CA, USA

...

Latest news about this satellite

There are no fresh news available about this satellite. Check back as we update our databases every day.


Newsletter sign-up

Weekly statistics, charts and insights to help you stay on top of the space industry.